When you browse on this site, cookies collect data to enhance your experience and personalize the content and advertising you see.
Visit our Privacy Policy to learn more. By continuing to use the site, you agree to this use of cookies and data.
  • In Czech Republic
  • List of Countries
  • For 7 days
  • Water Temperature
  • Weather Map
  • Weather Widgets
  • user-avatar
    Login

    Hourly Weather Djelfa

    Today, 18 September, Wednesday

    Time Temperature Precipitation Wind Pressure Humidity
    00:00 +22°C° 0 mm 3 mps 667 mmHg 63%
    01:00 +22°C° 0.1 mm 5 mps 667 mmHg 60%
    02:00 +22°C° 0.1 mm 6 mps 667 mmHg 58%
    03:00 +22°C° 0.1 mm 8 mps 667 mmHg 55%
    04:00 +22°C° 0.2 mm 6 mps 667 mmHg 53%
    05:00 +23°C° 0.2 mm 4 mps 667 mmHg 50%
    06:00 +24°C° 0.2 mm 2 mps 668 mmHg 47%
    07:00 +26°C° 0 mm 3 mps 668 mmHg 42%
    08:00 +27°C° 0 mm 4 mps 668 mmHg 37%
    09:00 +29°C° 0 mm 5 mps 669 mmHg 32%
    10:00 +29°C° 0 mm 5 mps 669 mmHg 31%
    11:00 +29°C° 0 mm 5 mps 669 mmHg 30%
    12:00 +30°C° 0 mm 5 mps 669 mmHg 29%
    13:00 +29°C° 0 mm 4 mps 668 mmHg 29%
    14:00 +29°C° 0 mm 4 mps 668 mmHg 30%
    15:00 +29°C° 0 mm 4 mps 668 mmHg 31%
    16:00 +28°C° 0 mm 4 mps 667 mmHg 32%
    17:00 +28°C° 0 mm 3 mps 667 mmHg 33%
    18:00 +28°C° 0 mm 3 mps 667 mmHg 35%
    19:00 +27°C° 0 mm 4 mps 667 mmHg 36%
    20:00 +27°C° 0 mm 5 mps 668 mmHg 36%
    21:00 +26°C° 0 mm 6 mps 668 mmHg 37%
    22:00 +26°C° 0 mm 6 mps 668 mmHg 39%
    23:00 +24°C° 0 mm 7 mps 667 mmHg 41%

    Tomorrow, 19 September, Thursday

    Time Temperature Precipitation Wind Pressure Humidity
    00:00 +23°C° 0 mm 7 mps 667 mmHg 44%
    01:00 +23°C° 0 mm 6 mps 667 mmHg 45%
    02:00 +23°C° 0 mm 5 mps 667 mmHg 47%
    03:00 +24°C° 0 mm 3 mps 667 mmHg 48%
    04:00 +24°C° 0 mm 3 mps 667 mmHg 45%
    05:00 +24°C° 0 mm 3 mps 667 mmHg 41%
    06:00 +25°C° 0 mm 3 mps 667 mmHg 37%
    07:00 +26°C° 0 mm 4 mps 668 mmHg 33%
    08:00 +28°C° 0 mm 5 mps 669 mmHg 28%
    09:00 +30°C° 0 mm 6 mps 669 mmHg 23%
    10:00 +30°C° 0 mm 7 mps 669 mmHg 22%
    11:00 +32°C° 0 mm 8 mps 669 mmHg 21%
    12:00 +33°C° 0 mm 9 mps 669 mmHg 20%
    13:00 +33°C° 0 mm 8 mps 669 mmHg 20%
    14:00 +33°C° 0 mm 8 mps 668 mmHg 20%
    15:00 +33°C° 0 mm 8 mps 668 mmHg 20%
    16:00 +32°C° 0 mm 7 mps 668 mmHg 21%
    17:00 +30°C° 0 mm 6 mps 667 mmHg 22%
    18:00 +29°C° 0 mm 5 mps 667 mmHg 24%
    19:00 +28°C° 0 mm 5 mps 668 mmHg 25%
    20:00 +28°C° 0 mm 5 mps 668 mmHg 26%
    21:00 +27°C° 0 mm 5 mps 668 mmHg 27%
    22:00 +27°C° 0 mm 5 mps 668 mmHg 27%
    23:00 +27°C° 0 mm 5 mps 668 mmHg 27%

    Day after tomorrow, 20 September, Friday

    Time Temperature Precipitation Wind Pressure Humidity
    00:00 +26°C° 0 mm 6 mps 667 mmHg 27%
    01:00 +26°C° 0 mm 6 mps 667 mmHg 28%
    02:00 +26°C° 0 mm 5 mps 667 mmHg 28%
    03:00 +25°C° 0 mm 5 mps 667 mmHg 29%
    04:00 +25°C° 0 mm 4 mps 666 mmHg 31%
    05:00 +24°C° 0 mm 3 mps 666 mmHg 32%
    06:00 +24°C° 0 mm 2 mps 666 mmHg 34%
    07:00 +26°C° 0 mm 3 mps 667 mmHg 29%
    08:00 +28°C° 0 mm 4 mps 668 mmHg 24%
    09:00 +30°C° 0 mm 5 mps 669 mmHg 19%
    10:00 +32°C° 0 mm 6 mps 669 mmHg 18%
    11:00 +32°C° 0 mm 7 mps 669 mmHg 18%
    12:00 +33°C° 0 mm 7 mps 668 mmHg 17%
    13:00 +34°C° 0 mm 7 mps 668 mmHg 17%
    14:00 +34°C° 0 mm 7 mps 668 mmHg 17%
    15:00 +34°C° 0 mm 7 mps 668 mmHg 17%
    16:00 +33°C° 0 mm 7 mps 667 mmHg 19%
    17:00 +32°C° 0 mm 6 mps 667 mmHg 21%
    18:00 +30°C° 0 mm 5 mps 667 mmHg 23%
    19:00 +29°C° 0.1 mm 5 mps 667 mmHg 25%
    20:00 +28°C° 0.1 mm 4 mps 667 mmHg 27%
    21:00 +27°C° 0.1 mm 4 mps 667 mmHg 29%
    22:00 +27°C° 0 mm 5 mps 667 mmHg 31%
    23:00 +26°C° 0 mm 5 mps 666 mmHg 33%

    21 September, Saturday

    Time Temperature Precipitation Wind Pressure Humidity
    00:00 +26°C° 0 mm 6 mps 666 mmHg 35%
    01:00 +26°C° 0 mm 6 mps 666 mmHg 35%
    02:00 +24°C° 0 mm 6 mps 666 mmHg 35%
    03:00 +24°C° 0 mm 6 mps 666 mmHg 35%
    04:00 +24°C° 0 mm 6 mps 666 mmHg 36%
    05:00 +24°C° 0 mm 6 mps 666 mmHg 36%
    06:00 +23°C° 0 mm 5 mps 666 mmHg 36%
    07:00 +26°C° 0 mm 7 mps 667 mmHg 33%
    08:00 +27°C° 0 mm 8 mps 667 mmHg 29%
    09:00 +29°C° 0 mm 9 mps 668 mmHg 26%
    10:00 +31°C° 0 mm 10 mps 668 mmHg 24%
    11:00 +32°C° 0 mm 10 mps 667 mmHg 21%
    12:00 +33°C° 0 mm 11 mps 667 mmHg 19%
    13:00 +34°C° 0 mm 10 mps 667 mmHg 17%
    14:00 +34°C° 0 mm 10 mps 667 mmHg 15%
    15:00 +35°C° 0 mm 9 mps 666 mmHg 14%
    16:00 +34°C° 0 mm 8 mps 666 mmHg 14%
    17:00 +33°C° 0 mm 7 mps 666 mmHg 15%
    18:00 +32°C° 0 mm 6 mps 666 mmHg 15%
    19:00 +30°C° 0 mm 5 mps 666 mmHg 17%
    20:00 +30°C° 0 mm 4 mps 666 mmHg 19%
    21:00 +29°C° 0 mm 3 mps 667 mmHg 21%
    22:00 +28°C° 0 mm 3 mps 666 mmHg 22%
    23:00 +28°C° 0 mm 2 mps 666 mmHg 23%

    22 September, Sunday

    Time Temperature Precipitation Wind Pressure Humidity
    00:00 +27°C° 0 mm 2 mps 666 mmHg 25%
    01:00 +27°C° 0 mm 3 mps 666 mmHg 24%
    02:00 +27°C° 0 mm 3 mps 666 mmHg 24%
    03:00 +27°C° 0 mm 4 mps 666 mmHg 24%
    04:00 +27°C° 0 mm 5 mps 666 mmHg 23%
    05:00 +27°C° 0 mm 6 mps 666 mmHg 23%
    06:00 +27°C° 0 mm 7 mps 666 mmHg 22%
    07:00 +28°C° 0 mm 8 mps 667 mmHg 21%
    08:00 +29°C° 0 mm 8 mps 667 mmHg 21%
    09:00 +31°C° 0 mm 9 mps 668 mmHg 21%
    10:00 +31°C° 0 mm 9 mps 668 mmHg 21%
    11:00 +32°C° 0 mm 9 mps 667 mmHg 22%
    12:00 +32°C° 0 mm 9 mps 667 mmHg 23%
    13:00 +33°C° 0 mm 8 mps 667 mmHg 20%
    14:00 +34°C° 0 mm 8 mps 667 mmHg 17%
    15:00 +34°C° 0 mm 7 mps 667 mmHg 14%
    16:00 +34°C° 0 mm 6 mps 667 mmHg 15%
    17:00 +33°C° 0 mm 5 mps 667 mmHg 16%
    18:00 +32°C° 0 mm 4 mps 667 mmHg 17%
    19:00 +30°C° 0 mm 3 mps 667 mmHg 21%
    20:00 +29°C° 0 mm 2 mps 667 mmHg 25%
    21:00 +28°C° 0 mm 1 mps 668 mmHg 29%
    22:00 +27°C° 0 mm 1 mps 667 mmHg 34%
    23:00 +26°C° 0 mm 1 mps 667 mmHg 39%

    23 September, Monday

    Time Temperature Precipitation Wind Pressure Humidity
    00:00 +25°C° 0 mm 1 mps 667 mmHg 43%
    01:00 +25°C° 0 mm 1 mps 667 mmHg 43%
    02:00 +25°C° 0 mm 1 mps 667 mmHg 42%
    03:00 +25°C° 0 mm 1 mps 667 mmHg 41%
    04:00 +25°C° 0 mm 1 mps 667 mmHg 39%
    05:00 +25°C° 0 mm 2 mps 667 mmHg 36%
    06:00 +25°C° 0 mm 2 mps 667 mmHg 34%
    07:00 +26°C° 0 mm 3 mps 668 mmHg 31%
    08:00 +28°C° 0 mm 3 mps 668 mmHg 29%
    09:00 +29°C° 0 mm 4 mps 669 mmHg 26%
    10:00 +30°C° 0 mm 4 mps 669 mmHg 24%
    11:00 +33°C° 0 mm 5 mps 670 mmHg 21%
    12:00 +34°C° 0 mm 5 mps 670 mmHg 18%
    13:00 +34°C° 0 mm 5 mps 669 mmHg 19%
    14:00 +34°C° 0 mm 5 mps 669 mmHg 21%
    15:00 +34°C° 0 mm 5 mps 668 mmHg 22%
    16:00 +33°C° 0 mm 3 mps 668 mmHg 25%
    17:00 +31°C° 0 mm 2 mps 668 mmHg 28%
    18:00 +29°C° 0 mm 1 mps 668 mmHg 31%
    19:00 +29°C° 0 mm 1 mps 668 mmHg 33%
    20:00 +28°C° 0 mm 1 mps 669 mmHg 35%
    21:00 +27°C° 0 mm 1 mps 669 mmHg 37%
    22:00 +26°C° 0 mm 1 mps 669 mmHg 39%
    23:00 +26°C° 0 mm 1 mps 668 mmHg 40%
    Show more